Regional Weather Roundup
Issued by NWS

Home | Current Version | Previous Version | Text Only | Print | Product List | Glossary Off
Versions: 1 2 3 4 5 6 7 8 9 10 11 12 13 14 15 16 17 18 19 20 21 22 23 24 25 26 27 28 29 30 31 32 33 34 35 36 37 38 39 40 41 42 43 44 45 46 47 48 49 50

000
ASUS43 KTOP 280459
RWRKS

WEATHER ROUNDUP FOR KANSAS
NATIONAL WEATHER SERVICE GOODLAND KS
1200 AM CDT SUN AUG 28 2016

NOTE:  "FAIR" INDICATES FEW OR NO CLOUDS BELOW 12,000 FEET WITH NO
SIGNIFICANT WEATHER AND/OR OBSTRUCTIONS TO VISIBILITY.

KSZ001>006-013>018-027>032-041>047-280600-
NORTHWEST KANSAS

CITY           SKY/WX    TMP DP  RH WIND       PRES   REMARKS
GOODLAND       CLEAR     63  59  87 S7        30.07R
HAYS           CLOUDY    73  63  68 SE9       30.04S
HILL CITY      PTCLDY    71  65  81 E8        30.03F
RUSSELL        PTCLDY    74  68  81 SE14      30.03S
$$

KSZ061>065-074>080-084>089-280600-
SOUTHWEST KANSAS

CITY           SKY/WX    TMP DP  RH WIND       PRES   REMARKS
DODGE CITY     PTCLDY    66  60  81 S7        30.07S
ELKHART          N/A     68  57  68 SE17        N/A
GARDEN CITY    CLEAR     67  59  75 S7        30.06R
GREAT BEND     CLOUDY    73  64  73 SE7       30.04F
LIBERAL        CLOUDY    66  57  72 S13       30.09S
$$

KSZ066>073-081>083-090>101-280600-
SOUTHEAST KANSAS

CITY           SKY/WX    TMP DP  RH WIND       PRES   REMARKS
CHANUTE        CLEAR     76  71  85 SE6       30.06R
COFFEYVILLE    CLEAR     77  70  79 SE3       30.06R
HUTCHINSON     CLOUDY    75  70  84 CALM      30.05S
NEWTON         PTCLDY    73  70  90 SE8       30.06S
PARSONS        CLEAR     77  70  79 SE3       30.07R
WICHITA INTL   PTCLDY    78  68  71 SE7       30.04S
WICHITA JABRA  PTCLDY    74  70  87 E3        30.05S
WINFIELD       PTCLDY    76  68  76 SE5       30.06R
$$

KSZ007>012-019>026-033>040-048>060-102>105-280600-
NORTHEAST KANSAS

CITY           SKY/WX    TMP DP  RH WIND       PRES   REMARKS
CONCORDIA      PTCLDY    70  68  93 SE6       30.05S
EMPORIA        CLEAR     71  68  90 S7        30.07R
LAWRENCE       CLEAR     69  69 100 E5        30.05S
MANHATTAN      PTCLDY    73  71  93 CALM      30.05R
OLATHE IND     CLEAR     76  72  87 E7        30.07R
OLATHE EXE     CLEAR     76  72  87 SE3       30.08R
SALINA         PTCLDY    76  71  85 SE6       30.04S
TOPEKA BILLARD CLEAR     73  69  87 CALM      30.05R
TOPEKA FORBES  CLEAR     73  69  87 CALM      30.06R
$$




USA.gov is the U.S. government's official web portal to all federal, state and local government web resources and services.